Wind_Speed
17 16 16 16 17 17 16 15 15 15 15 14 13 13 13 13 13 13 13 13 13 13 13 11 11 11 11 10 10 10 10 10 11 11 11 12 12 12 12 13 13 13 13
19 19 18 19 19 19 18 18 17 17 17 16 16 15 16 16 15 15 15 15 14 14 14 13 13 12 12 12 12 11 11 11 11 12 12 12 13 13 14 14 14 14 14
20 20 21 21 20 20 20 19 19 19 18 18 18 17 17 17 17 17 18 17 16 15 15 14 13 13 13 13 13 13 13 13 13 13 14 14 13 14 14 14 15 14 14
22 22 22 22 22 22 21 21 21 20 19 19 19 19 19 19 19 19 19 20 19 18 17 16 15 14 14 14 14 15 15 14 14 14 15 15 15 15 15 15 15 15 15
23 24 24 23 24 24 23 22 22 22 22 21 21 20 20 20 20 21 21 21 21 21 19 18 16 15 15 15 15 16 16 16 16 15 15 15 16 16 16 16 15 16 16
24 24 24 24 24 25 25 25 24 23 23 22 22 21 21 22 22 22 23 22 22 21 20 19 17 17 17 17 18 17 17 17 17 17 16 16 16 17 16 17 17 17 18
23 23 24 24 25 26 26 26 26 25 24 24 23 22 22 23 23 23 23 23 22 21 20 20 19 19 20 20 20 19 19 18 18 18 17 17 17 18 17 17 18 18 19
24 25 25 26 26 26 26 26 26 26 25 25 25 25 25 24 24 23 23 23 22 22 22 21 21 22 22 22 22 21 21 20 19 19 18 18 18 18 18 18 18 18 19
25 26 26 26 26 27 27 26 27 27 27 27 26 26 25 25 25 25 24 24 24 24 23 23 23 23 23 23 23 22 22 21 20 20 20 19 19 19 19 18 18 19 19
26 26 26 26 27 27 27 28 28 29 29 28 28 27 26 26 26 25 25 25 25 24 24 24 24 24 23 22 22 22 23 22 21 21 20 20 20 20 20 19 19 19 19
27 27 28 28 28 29 29 29 29 30 30 30 29 29 28 27 27 26 26 26 26 25 25 25 25 23 23 23 23 22 22 22 22 22 21 21 21 21 21 20 20 19 20
29 29 29 29 29 29 29 29 30 30 30 30 30 30 29 28 28 28 28 27 26 26 26 27 26 25 24 24 23 23 23 22 22 21 21 21 21 22 22 21 20 20 20
29 29 29 29 28 28 28 29 30 29 30 31 31 30 30 29 29 30 30 29 28 28 28 27 27 26 26 25 24 24 24 23 23 22 21 21 21 21 21 21 20 20 20
29 29 29 28 28 28 28 29 29 29 29 30 31 31 30 30 30 30 31 31 29 29 28 28 28 28 27 26 25 25 25 25 24 23 22 21 21 20 20 20 20 19 20
28 28 28 28 27 27 27 28 28 29 29 30 30 30 30 30 30 30 31 31 30 30 30 29 28 27 27 27 27 26 26 26 25 24 23 22 21 21 21 21 20 20 21
27 27 27 27 27 27 27 27 28 28 28 30 30 30 31 30 29 29 29 29 30 30 28 28 27 27 26 26 28 28 27 26 26 25 24 23 23 22 22 22 21 22 22
27 27 27 27 27 27 27 27 28 28 29 29 30 30 30 30 29 29 29 29 29 28 28 27 27 28 28 28 28 28 29 28 27 27 25 24 24 23 23 23 23 23 23
27 28 27 26 27 27 27 28 28 28 28 29 30 30 30 30 30 30 30 30 29 29 28 27 28 28 29 30 31 31 30 29 29 28 27 26 25 25 25 24 24 24 24
27 27 28 27 27 27 27 27 27 27 28 28 29 31 31 31 31 30 30 30 29 29 29 29 30 30 29 29 29 30 30 30 30 30 29 28 27 26 25 25 25 25 25
26 26 27 27 26 26 26 27 27 27 27 27 28 29 30 30 30 29 29 30 30 29 29 30 31 31 31 30 30 31 31 30 30 30 30 29 29 28 27 26 26 26 25
25 25 26 25 26 26 26 26 26 26 26 27 27 27 28 29 29 29 29 29 29 29 29 30 31 32 31 30 30 30 30 30 30 30 30 30 30 29 29 28 27 27 26
25 25 25 25 26 26 26 26 26 26 27 27 27 27 27 28 28 28 29 29 28 28 29 29 30 29 30 30 29 29 29 29 30 30 30 30 30 30 29 28 28 28 27
25 25 25 26 26 26 26 26 26 26 27 26 27 27 27 28 29 29 29 28 29 29 29 28 28 29 29 29 29 29 29 29 29 29 30 29 29 29 29 28 27 28 28
24 25 26 25 26 26 26 25 26 26 26 26 27 27 27 28 28 28 28 28 28 28 28 28 28 28 28 28 28 28 28 28 28 29 30 30 30 29 28 27 27 27 27
24 25 25 24 24 25 25 26 26 26 27 27 27 27 27 28 28 27 27 27 27 26 26 25 26 27 27 27 28 28 28 29 29 29 30 30 30 29 28 28 27 27 27
24 25 25 24 25 24 24 24 25 25 25 25 26 26 26 26 26 26 26 25 26 26 25 24 25 25 26 26 27 28 28 29 29 29 29 30 30 29 29 28 28 27 27
Wind_Direction
280 283 286 289 288 288 288 288 287 289 289 289 287 285 286 285 284 288 287 282 278 275 274 275 274 271 271 272 271 271 275 275 275 273 276 275 274 277 275 274 275 276 275
280 282 284 286 285 285 286 286 286 285 286 286 284 283 286 284 284 282 283 279 276 276 274 272 272 269 268 269 268 270 273 276 277 275 276 278 276 278 278 276 274 274 275
278 282 285 283 282 282 282 284 286 285 283 282 281 280 281 281 282 282 280 276 272 273 275 272 271 270 267 267 269 272 274 276 276 275 273 275 275 277 278 276 273 272 275
276 279 280 279 278 278 279 281 284 283 282 281 280 279 278 278 279 280 277 277 274 272 274 271 269 268 269 268 269 272 274 275 276 274 274 275 273 274 276 276 275 275 276
276 277 277 277 275 274 275 277 279 281 283 282 281 279 279 280 279 277 274 274 271 272 271 268 267 267 268 270 270 271 274 275 275 274 275 275 273 274 276 275 276 278 278
274 275 275 275 275 273 273 275 276 277 279 280 281 280 279 280 279 276 272 270 271 272 268 262 263 266 266 268 269 270 272 275 276 274 275 277 277 278 278 277 277 278 278
275 276 277 277 276 275 273 272 274 275 277 278 277 277 279 280 278 277 273 270 270 271 269 268 265 265 265 265 268 271 272 273 275 275 275 276 277 278 278 278 278 278 277
276 276 277 277 276 274 272 271 271 274 275 275 275 276 276 278 278 276 275 275 274 273 269 269 270 267 265 265 268 270 271 271 273 273 274 275 276 278 279 277 277 277 277
278 278 278 277 275 273 273 272 271 272 271 272 274 274 274 275 277 276 274 274 273 269 266 268 270 271 268 266 267 268 268 268 270 272 272 273 273 274 277 276 275 275 276
281 281 280 277 273 272 272 272 271 269 268 271 272 273 274 274 274 274 273 273 270 268 267 268 269 269 268 266 267 268 269 268 267 271 273 273 273 272 274 271 273 273 275
282 282 280 277 275 273 271 270 270 269 268 269 270 270 272 273 271 270 271 271 270 269 266 267 269 269 266 264 265 267 267 268 269 270 272 272 272 273 273 270 272 273 274
283 283 281 279 277 274 272 269 269 270 268 268 268 268 270 270 269 269 270 273 272 268 268 268 268 268 266 264 264 265 265 266 267 269 270 271 271 272 271 270 271 272 273
284 283 282 280 278 275 271 269 270 271 269 268 268 267 268 270 269 270 271 273 272 270 269 269 267 266 264 263 264 264 264 264 265 267 269 269 269 272 270 270 271 271 271
286 284 282 280 278 274 272 270 269 270 268 268 267 267 268 270 270 270 271 271 269 268 268 268 265 264 262 262 262 263 263 262 264 265 267 266 266 269 268 268 270 271 271
285 284 282 280 279 277 273 271 270 270 268 267 267 268 267 268 269 270 271 270 269 269 269 268 265 264 262 262 261 261 261 262 262 262 263 263 264 264 266 267 269 271 271
284 283 281 281 279 277 274 272 271 269 267 267 266 266 266 267 268 270 272 271 270 270 271 265 264 264 263 261 261 260 260 260 259 259 260 262 265 264 264 268 270 273 273
282 281 281 279 277 277 274 273 273 272 270 269 269 267 267 268 269 269 269 269 268 268 268 264 263 262 262 261 262 260 260 259 258 259 259 262 264 263 264 267 271 273 274
285 283 282 279 278 277 275 275 275 274 274 272 270 269 268 269 269 269 267 267 266 266 264 263 263 265 263 261 261 261 259 258 258 258 258 259 261 263 264 266 269 271 274
287 285 284 282 280 278 277 276 275 275 276 274 271 270 271 271 271 269 269 268 266 265 264 264 264 264 263 262 261 260 257 257 257 257 257 258 260 262 262 264 267 270 273
288 287 286 284 283 281 278 277 276 276 276 275 273 272 271 270 270 269 268 268 266 264 265 266 266 265 262 261 262 260 256 255 255 255 256 257 258 260 261 263 266 268 271
288 286 284 283 282 281 279 279 278 277 277 276 274 274 273 270 268 267 267 267 267 267 267 267 265 264 262 261 261 259 256 254 253 252 254 255 256 259 261 262 265 266 268
288 288 286 286 285 283 281 279 279 278 277 277 275 274 273 270 268 267 268 269 269 268 267 266 265 263 262 261 260 259 257 254 253 252 252 253 254 257 260 262 263 264 266
287 288 288 286 286 284 282 280 279 279 279 279 277 275 274 271 269 269 270 270 269 267 266 266 265 262 261 260 259 257 256 253 252 252 251 252 252 254 259 261 263 263 264
289 290 291 289 288 287 285 284 283 282 280 279 278 277 275 272 271 271 271 271 270 268 266 265 263 261 259 258 257 256 255 253 254 253 253 254 254 254 256 258 260 262 264
290 291 291 291 291 290 288 287 286 284 283 281 279 277 275 273 271 271 271 270 269 267 265 265 262 260 257 256 256 255 253 253 255 254 254 254 254 255 255 257 259 262 263
291 291 290 291 292 292 290 289 288 286 285 283 281 279 277 275 272 270 269 268 267 266 265 265 264 260 257 255 255 254 253 253 255 256 255 254 253 254 255 256 258 260 261
Height
5892 5891 5890 5889 5888 5887 5885 5884 5883 5882 5881 5880 5879 5878 5877 5876 5875 5874 5873 5872 5872 5871 5871 5870 5870 5869 5869 5868 5868 5868 5867 5867 5867 5866 5866 5865 5864 5864 5863 5863 5862 5862 5861
5888 5887 5886 5885 5884 5883 5882 5881 5879 5878 5877 5876 5875 5874 5873 5872 5872 5871 5870 5869 5869 5868 5868 5867 5867 5866 5866 5866 5865 5865 5865 5864 5864 5863 5863 5863 5862 5861 5860 5859 5859 5858 5858
5884 5883 5882 5881 5880 5879 5878 5877 5876 5875 5874 5872 5871 5870 5869 5868 5868 5867 5866 5866 5865 5865 5864 5864 5863 5863 5863 5862 5862 5862 5862 5861 5860 5860 5860 5859 5859 5858 5857 5856 5855 5855 5854
5879 5878 5877 5876 5875 5874 5873 5872 5872 5871 5869 5868 5867 5866 5865 5864 5863 5862 5862 5861 5861 5860 5860 5860 5859 5859 5859 5859 5859 5859 5858 5858 5857 5856 5856 5855 5855 5854 5854 5853 5852 5851 5850
5873 5872 5871 5871 5870 5869 5868 5868 5867 5866 5865 5864 5863 5862 5861 5860 5858 5857 5856 5856 5855 5855 5855 5855 5855 5855 5855 5855 5855 5855 5854 5854 5853 5853 5852 5851 5850 5850 5850 5849 5848 5848 5847
5867 5866 5865 5865 5864 5863 5863 5862 5862 5861 5860 5859 5858 5857 5856 5854 5853 5852 5851 5850 5850 5849 5849 5849 5850 5850 5850 5850 5850 5850 5850 5850 5849 5848 5848 5847 5846 5846 5845 5844 5844 5843 5843
5861 5860 5859 5858 5858 5857 5856 5856 5856 5855 5854 5853 5852 5851 5850 5849 5847 5846 5845 5844 5844 5844 5844 5844 5844 5844 5844 5845 5845 5845 5845 5845 5844 5844 5843 5842 5842 5841 5840 5840 5839 5838 5838
5855 5854 5853 5852 5851 5850 5850 5849 5849 5848 5848 5847 5846 5845 5844 5843 5841 5840 5839 5839 5839 5838 5838 5838 5838 5838 5838 5839 5839 5839 5839 5839 5839 5838 5838 5838 5837 5836 5836 5835 5834 5834 5833
5848 5847 5846 5845 5844 5843 5842 5842 5842 5841 5841 5840 5840 5839 5837 5836 5836 5834 5834 5833 5833 5833 5833 5832 5832 5832 5832 5832 5833 5833 5833 5832 5832 5832 5832 5832 5832 5831 5831 5830 5829 5829 5828
5841 5840 5839 5838 5836 5835 5835 5834 5834 5834 5833 5833 5832 5832 5831 5830 5829 5829 5828 5828 5827 5826 5826 5826 5826 5826 5826 5826 5826 5826 5826 5826 5826 5826 5826 5826 5826 5826 5825 5825 5824 5823 5823
5834 5832 5831 5829 5828 5827 5826 5826 5826 5825 5825 5825 5824 5824 5824 5823 5823 5822 5822 5821 5820 5820 5819 5819 5819 5819 5819 5819 5819 5819 5819 5820 5819 5820 5820 5820 5820 5820 5819 5819 5818 5818 5817
5826 5824 5822 5820 5819 5818 5817 5817 5817 5817 5816 5816 5816 5816 5816 5815 5815 5815 5814 5814 5813 5813 5812 5812 5812 5812 5812 5812 5812 5813 5813 5813 5813 5813 5813 5814 5814 5814 5813 5813 5812 5812 5811
5818 5815 5813 5811 5810 5809 5808 5808 5808 5808 5808 5808 5808 5808 5808 5807 5807 5807 5806 5806 5806 5805 5805 5805 5805 5804 5805 5805 5805 5806 5806 5806 5806 5807 5807 5807 5808 5807 5807 5807 5806 5806 5805
5809 5807 5805 5803 5802 5800 5799 5799 5799 5799 5799 5799 5799 5800 5800 5799 5799 5799 5798 5798 5798 5798 5797 5797 5797 5797 5797 5797 5798 5798 5799 5799 5800 5800 5801 5801 5801 5801 5801 5801 5800 5800 5800
5801 5799 5797 5795 5793 5792 5791 5791 5790 5790 5790 5790 5791 5791 5791 5791 5791 5790 5790 5790 5790 5789 5789 5789 5789 5789 5789 5790 5791 5791 5792 5792 5793 5793 5794 5794 5795 5795 5795 5795 5795 5794 5794
5793 5791 5789 5787 5786 5784 5783 5783 5782 5782 5781 5782 5782 5782 5782 5781 5781 5781 5781 5781 5781 5781 5780 5780 5781 5781 5781 5782 5783 5784 5785 5785 5786 5786 5787 5788 5788 5788 5788 5788 5788 5788 5788
5785 5783 5781 5779 5778 5776 5775 5774 5774 5773 5773 5773 5772 5772 5772 5772 5772 5772 5772 5772 5772 5772 5771 5771 5772 5773 5773 5774 5775 5775 5777 5777 5778 5779 5780 5780 5781 5782 5782 5782 5782 5781 5781
5777 5775 5773 5771 5770 5768 5767 5766 5765 5765 5764 5764 5763 5763 5763 5763 5763 5763 5763 5763 5763 5762 5763 5763 5763 5764 5764 5765 5766 5766 5768 5769 5770 5771 5772 5773 5774 5774 5775 5775 5775 5775 5774
5769 5767 5765 5763 5762 5760 5759 5758 5757 5757 5756 5755 5755 5754 5754 5754 5753 5753 5754 5754 5754 5754 5754 5754 5754 5754 5755 5756 5756 5757 5758 5760 5761 5762 5763 5764 5766 5767 5767 5768 5768 5767 5767
5762 5760 5757 5756 5754 5752 5751 5750 5749 5748 5748 5747 5746 5745 5745 5744 5744 5744 5744 5744 5744 5744 5744 5744 5745 5745 5745 5746 5747 5748 5749 5751 5752 5753 5754 5756 5757 5758 5759 5760 5760 5760 5760
5754 5752 5750 5748 5747 5745 5743 5742 5741 5740 5739 5738 5737 5736 5735 5735 5735 5735 5735 5734 5734 5734 5734 5735 5735 5735 5736 5736 5737 5738 5739 5741 5742 5744 5745 5747 5748 5749 5750 5751 5752 5752 5752
5746 5744 5742 5740 5738 5736 5735 5734 5733 5731 5730 5729 5728 5727 5726 5726 5726 5725 5725 5725 5725 5725 5725 5725 5725 5725 5726 5727 5728 5729 5730 5731 5733 5734 5736 5738 5739 5740 5741 5742 5743 5743 5743
5739 5737 5735 5733 5731 5728 5727 5725 5724 5723 5721 5720 5719 5718 5717 5717 5716 5716 5716 5715 5715 5715 5715 5715 5715 5715 5716 5717 5718 5720 5721 5722 5724 5726 5727 5729 5730 5732 5733 5734 5735 5735 5735
5732 5729 5727 5724 5722 5720 5718 5717 5716 5714 5713 5712 5710 5709 5708 5707 5707 5707 5706 5706 5706 5705 5705 5705 5706 5706 5707 5708 5709 5710 5712 5713 5715 5717 5718 5720 5721 5723 5724 5725 5726 5727 5727
5725 5722 5719 5717 5715 5713 5711 5709 5707 5706 5704 5703 5701 5700 5699 5698 5698 5697 5697 5697 5697 5696 5696 5696 5697 5697 5698 5699 5700 5701 5703 5705 5706 5708 5710 5711 5713 5714 5716 5717 5718 5719 5719
5717 5715 5712 5710 5708 5706 5703 5701 5699 5697 5696 5694 5693 5692 5690 5690 5689 5689 5688 5688 5688 5688 5688 5688 5688 5689 5690 5691 5692 5693 5695 5696 5698 5699 5701 5702 5704 5706 5707 5709 5710 5711 5711